| time (UTC) | temp F | wind direction | speed knots | gust knots | rain 1hr in | rain 24hr in | rain mn in | humidity % | barometer mb |
| 20260507103229 | 54 | 259 | 5.2 | 9.6 | 0.00 | 0.00 | 0.00 | 21 | 982.6 |
| 20260507102331 | 53 | 217 | 7.0 | 9.6 | 0.00 | 0.00 | 0.00 | 24 | 982.6 |
| 20260507101430 | 53 | 284 | 6.1 | 9.6 | 0.00 | 0.00 | 0.00 | 22 | 982.6 |
| 20260507100530 | 53 | 282 | 7.8 | 9.6 | 0.00 | 0.00 | 0.00 | 23 | 982.5 |
| 20260507095629 | 52 | 272 | 7.0 | 9.6 | 0.00 | 0.00 | 0.00 | 23 | 982.5 |
| 20260507093831 | 52 | 259 | 7.0 | 9.6 | 0.00 | 0.00 | 0.00 | 27 | 982.3 |
| 20260507091130 | 51 | 294 | 6.1 | 8.7 | 0.00 | 0.00 | 0.00 | 27 | 982.5 |
| 20260507090230 | 52 | 292 | 4.3 | 8.7 | 0.00 | 0.00 | 0.00 | 28 | 982.3 |
| 20260507085330 | 52 | 267 | 3.5 | 7.0 | 0.00 | 0.00 | 0.00 | 29 | 982.3 |
| 20260507084448 | 52 | 188 | 4.3 | 7.0 | 0.00 | 0.00 | 0.00 | 27 | 982.5 |
| 20260507083530 | 51 | 287 | 4.3 | 7.0 | 0.00 | 0.00 | 0.00 | 30 | 982.5 |
| 20260507082635 | 51 | 257 | 4.3 | 8.7 | 0.00 | 0.00 | 0.00 | 31 | 982.4 |
| 20260507075930 | 51 | 315 | 2.6 | 6.1 | 0.00 | 0.00 | 0.00 | 36 | 982.1 |
| 20260507075030 | 50 | 288 | 2.6 | 4.3 | 0.00 | 0.00 | 0.00 | 37 | 982.1 |
| 20260507074130 | 51 | 245 | 3.5 | 4.3 | 0.00 | 0.00 | 0.00 | 38 | 982.0 |
| 20260507073230 | 50 | 298 | 4.3 | 6.1 | 0.00 | 0.00 | 0.00 | 40 | 982.1 |
| 20260507071430 | 50 | 319 | 2.6 | 5.2 | 0.00 | 0.00 | 0.00 | 38 | 982.1 |
| 20260507070530 | 51 | 8 | 1.7 | 4.3 | 0.00 | 0.00 | 0.00 | 39 | 981.9 |
| 20260507065630 | 51 | 38 | 1.7 | 3.5 | 0.00 | 0.00 | 0.00 | 39 | 982.1 |
| 20260507063830 | 51 | 321 | 2.6 | 3.5 | 0.00 | 0.00 | 0.00 | 40 | 981.9 |
| 20260507062930 | 51 | 18 | 1.7 | 1.7 | 0.00 | 0.00 | 0.00 | 41 | 981.7 |
| 20260507062030 | 49 | 30 | 1.7 | 3.5 | 0.00 | 0.00 | 0.00 | 42 | 981.7 |
| 20260507061130 | 50 | 50 | 1.7 | 1.7 | 0.00 | 0.00 | 0.00 | 43 | 981.7 |
| 20260507060230 | 47 | 54 | 1.7 | 2.6 | 0.00 | 0.00 | 0.00 | 46 | 981.6 |
| 20260507055330 | 46 | 30 | 1.7 | 1.7 | 0.00 | 0.00 | 0.00 | 47 | 981.5 |
| 20260507054431 | 44 | 49 | 1.7 | 3.5 | 0.00 | 0.00 | 0.00 | 49 | 981.4 |
| 20260507053530 | 43 | 33 | 2.6 | 3.5 | 0.00 | 0.00 | 0.00 | 51 | 981.5 |
| 20260507052631 | 41 | 39 | 3.5 | 3.5 | 0.00 | 0.00 | 0.00 | 52 | 981.4 |
| 20260507051730 | 40 | 40 | 3.5 | 4.3 | 0.00 | 0.00 | 0.00 | 52 | 981.5 |
| 20260507050831 | 39 | 10 | 3.5 | 4.3 | 0.00 | 0.00 | 0.00 | 52 | 981.4 |
| 20260507045930 | 40 | 65 | 2.6 | 3.5 | 0.00 | 0.00 | 0.00 | 51 | 981.3 |
| 20260507044130 | 39 | 101 | 2.6 | 3.5 | 0.00 | 0.00 | 0.00 | 53 | 981.0 |
| 20260507043230 | 37 | 61 | 3.5 | 3.5 | 0.00 | 0.00 | 0.00 | 56 | 981.0 |
| 20260507042331 | 37 | 65 | 3.5 | 5.2 | 0.00 | 0.00 | 0.00 | 56 | 980.9 |
| 20260507041430 | 37 | 66 | 3.5 | 3.5 | 0.00 | 0.00 | 0.00 | 56 | 981.0 |
| 20260507040530 | 36 | 90 | 4.3 | 4.3 | 0.00 | 0.00 | 0.00 | 58 | 980.8 |
| 20260507035630 | 36 | 86 | 3.5 | 4.3 | 0.00 | 0.00 | 0.00 | 58 | 980.9 |
| 20260507034730 | 35 | 93 | 3.5 | 4.3 | 0.00 | 0.00 | 0.00 | 59 | 980.7 |
| 20260507032030 | 33 | 93 | 3.5 | 4.3 | 0.00 | 0.00 | 0.00 | 65 | 980.5 |
| 20260507031131 | 32 | 120 | 3.5 | 3.5 | 0.00 | 0.00 | 0.00 | 66 | 980.5 |
| 20260507030230 | 31 | 119 | 3.5 | 3.5 | 0.00 | 0.00 | 0.00 | 68 | 980.5 |
| 20260507025331 | 31 | 121 | 2.6 | 3.5 | 0.00 | 0.00 | 0.00 | 69 | 980.4 |
| 20260507024431 | 31 | 102 | 2.6 | 3.5 | 0.00 | 0.00 | 0.00 | 68 | 980.4 |
| 20260507023530 | 32 | 89 | 2.6 | 3.5 | 0.00 | 0.00 | 0.00 | 66 | 980.4 |
| 20260507022630 | 33 | 85 | 1.7 | 3.5 | 0.00 | 0.00 | 0.00 | 64 | 980.5 |
| 20260507021730 | 34 | 96 | 0.9 | 1.7 | 0.00 | 0.00 | 0.00 | 61 | 980.4 |
| 20260507020831 | 35 | 139 | 0.9 | 1.7 | 0.00 | 0.00 | 0.00 | 60 | 980.4 |
| 20260507015930 | 36 | 117 | 1.7 | 2.6 | 0.00 | 0.00 | 0.00 | 59 | 980.2 |
| 20260507014131 | 36 | 133 | 3.5 | 4.3 | 0.00 | 0.00 | 0.00 | 61 | 980.1 |
| 20260507013230 | 35 | 125 | 3.5 | 4.3 | 0.00 | 0.00 | 0.00 | 62 | 980.1 |
| 20260507012330 | 35 | 113 | 2.6 | 3.5 | 0.00 | 0.00 | 0.00 | 64 | 980.1 |
| 20260507010530 | 34 | 52 | 0.9 | 1.7 | 0.00 | 0.00 | 0.00 | 67 | 979.9 |
| 20260507005630 | 34 | 150 | 0.9 | 1.7 | 0.00 | 0.00 | 0.00 | 67 | 979.8 |
| 20260507004730 | 34 | 181 | 1.7 | 2.6 | 0.00 | 0.00 | 0.00 | 69 | 979.7 |
| 20260507003831 | 33 | 181 | 2.6 | 2.6 | 0.00 | 0.00 | 0.00 | 70 | 979.8 |
| 20260507002030 | 35 | 334 | 1.7 | 1.7 | 0.00 | 0.00 | 0.00 | 63 | 979.5 |
| 20260507001131 | 38 | 123 | 2.6 | 3.5 | 0.00 | 0.00 | 0.00 | 59 | 979.4 |
| 20260506235330 | 38 | 120 | 3.5 | 4.3 | 0.00 | 0.00 | 0.00 | 59 | 979.0 |
| 20260506234430 | 38 | 94 | 3.5 | 3.5 | 0.00 | 0.00 | 0.00 | 58 | 979.1 |
| 20260506233530 | 38 | 77 | 3.5 | 4.3 | 0.00 | 0.00 | 0.00 | 58 | 979.0 |
| 20260506232630 | 38 | 87 | 3.5 | 4.3 | 0.00 | 0.00 | 0.00 | 59 | 979.0 |
| 20260506231730 | 38 | 89 | 3.5 | 5.2 | 0.00 | 0.00 | 0.00 | 60 | 979.0 |
| 20260506225030 | 37 | 90 | 2.6 | 3.5 | 0.00 | 0.00 | 0.00 | 65 | 978.9 |
| 20260506223230 | 37 | 45 | 3.5 | 4.3 | 0.00 | 0.00 | 0.00 | 64 | 978.8 |
| 20260506222330 | 39 | 30 | 0.9 | 3.5 | 0.00 | 0.00 | 0.00 | 61 | 978.8 |
| 20260506221430 | 39 | 100 | 1.7 | 1.7 | 0.00 | 0.00 | 0.00 | 60 | 978.7 |
| 20260506220530 | 40 | 125 | 0.9 | 1.7 | 0.00 | 0.00 | 0.00 | 58 | 978.6 |
| 20260506215630 | 40 | 94 | 1.7 | 2.6 | 0.00 | 0.00 | 0.00 | 58 | 978.5 |
| 20260506213831 | 41 | 13 | 1.7 | 3.5 | 0.00 | 0.00 | 0.00 | 58 | 978.6 |
| 20260506212930 | 41 | 130 | 2.6 | 3.5 | 0.00 | 0.00 | 0.00 | 56 | 978.5 |
| 20260506205331 | 42 | 86 | 1.7 | 2.6 | 0.00 | 0.00 | 0.00 | 57 | 978.6 |
| 20260506203530 | 42 | 34 | 3.5 | 5.2 | 0.00 | 0.00 | 0.00 | 59 | 978.3 |
| 20260506202630 | 43 | 160 | 3.5 | 4.3 | 0.00 | 0.00 | 0.00 | 55 | 978.2 |
| 20260506201730 | 43 | 171 | 4.3 | 7.0 | 0.00 | 0.00 | 0.00 | 56 | 978.2 |
| 20260506200831 | 44 | 175 | 7.0 | 7.0 | 0.00 | 0.00 | 0.00 | 53 | 978.1 |
| 20260506194131 | 43 | 151 | 5.2 | 7.0 | 0.00 | 0.00 | 0.00 | 56 | 978.0 |
| 20260506193230 | 44 | 169 | 5.2 | 7.0 | 0.00 | 0.00 | 0.00 | 55 | 978.0 |
| 20260506192331 | 44 | 172 | 6.1 | 7.8 | 0.00 | 0.00 | 0.00 | 54 | 978.2 |
| 20260506191430 | 45 | 164 | 4.3 | 7.0 | 0.00 | 0.00 | 0.00 | 51 | 978.0 |
| 20260506190530 | 46 | 142 | 6.1 | 9.6 | 0.00 | 0.00 | 0.00 | 47 | 977.9 |
| 20260506185630 | 46 | 184 | 5.2 | 7.0 | 0.00 | 0.00 | 0.00 | 45 | 977.9 |
| 20260506184730 | 47 | 228 | 6.1 | 7.0 | 0.00 | 0.00 | 0.00 | 42 | 977.9 |
| 20260506183831 | 48 | 251 | 7.0 | 13.0 | 0.00 | 0.00 | 0.00 | 34 | 977.8 |
| 20260506182030 | 48 | 204 | 4.3 | 7.0 | 0.00 | 0.00 | 0.00 | 37 | 977.5 |
| 20260506181131 | 48 | 223 | 7.8 | 10.4 | 0.00 | 0.00 | 0.00 | 38 | 977.6 |
| 20260506180230 | 48 | 213 | 7.0 | 13.0 | 0.00 | 0.00 | 0.00 | 38 | 977.7 |
| 20260506174430 | 48 | 127 | 3.5 | 3.5 | 0.00 | 0.00 | 0.00 | 38 | 977.5 |
| 20260506172630 | 49 | 248 | 1.7 | 4.3 | 0.00 | 0.00 | 0.00 | 35 | 977.4 |
| 20260506171730 | 49 | 76 | 1.7 | 2.6 | 0.00 | 0.00 | 0.00 | 32 | 977.4 |
| 20260506170831 | 49 | 285 | 4.3 | 8.7 | 0.00 | 0.00 | 0.00 | 32 | 977.2 |
| 20260506165930 | 50 | 307 | 4.3 | 8.7 | 0.00 | 0.00 | 0.00 | 32 | 977.2 |
| 20260506165030 | 50 | 232 | 3.5 | 6.1 | 0.00 | 0.00 | 0.00 | 34 | 977.2 |
| 20260506164130 | 50 | 198 | 4.3 | 7.0 | 0.00 | 0.00 | 0.00 | 31 | 977.2 |
| 20260506163230 | 50 | 275 | 5.2 | 8.7 | 0.00 | 0.00 | 0.00 | 34 | 977.2 |
| 20260506162330 | 51 | 269 | 4.3 | 7.0 | 0.00 | 0.00 | 0.00 | 33 | 977.2 |
| 20260506161430 | 51 | 231 | 6.1 | 9.6 | 0.00 | 0.00 | 0.00 | 32 | 977.2 |
| 20260506160530 | 51 | 197 | 6.1 | 8.7 | 0.00 | 0.00 | 0.00 | 32 | 977.2 |
| 20260506155630 | 51 | 242 | 4.3 | 7.0 | 0.00 | 0.00 | 0.00 | 28 | 977.0 |
| 20260506154730 | 51 | 260 | 2.6 | 4.3 | 0.00 | 0.00 | 0.00 | 27 | 977.1 |
| 20260506153830 | 51 | 198 | 4.3 | 7.0 | 0.00 | 0.00 | 0.00 | 30 | 977.3 |
| 20260506152930 | 52 | 191 | 5.2 | 7.0 | 0.00 | 0.00 | 0.00 | 31 | 977.2 |
| 20260506152030 | 51 | 190 | 7.0 | 8.7 | 0.00 | 0.00 | 0.00 | 31 | 977.3 |
| 20260506151130 | 51 | 206 | 8.7 | 12.2 | 0.00 | 0.00 | 0.00 | 33 | 977.1 |
| 20260506150230 | 51 | 212 | 8.7 | 12.2 | 0.00 | 0.00 | 0.00 | 31 | 977.2 |
| 20260506145330 | 52 | 195 | 5.2 | 6.1 | 0.00 | 0.00 | 0.00 | 27 | 977.3 |
| 20260506144430 | 53 | 225 | 6.1 | 8.7 | 0.00 | 0.00 | 0.00 | 26 | 977.4 |
| 20260506143530 | 54 | 209 | 6.1 | 7.0 | 0.00 | 0.00 | 0.00 | 25 | 977.4 |
| 20260506142630 | 53 | 213 | 5.2 | 7.8 | 0.00 | 0.00 | 0.00 | 27 | 977.4 |
| 20260506141730 | 53 | 215 | 6.1 | 7.8 | 0.00 | 0.00 | 0.00 | 25 | 977.4 |
| 20260506140831 | 53 | 273 | 3.5 | 8.7 | 0.00 | 0.00 | 0.00 | 26 | 977.5 |
| 20260506135930 | 55 | 261 | 3.5 | 5.2 | 0.00 | 0.00 | 0.00 | 26 | 977.6 |
| 20260506135030 | 54 | 304 | 4.3 | 7.0 | 0.00 | 0.00 | 0.00 | 27 | 977.7 |
| 20260506134130 | 53 | 328 | 3.5 | 6.1 | 0.00 | 0.00 | 0.00 | 29 | 977.6 |
| 20260506133230 | 51 | 291 | 5.2 | 7.0 | 0.00 | 0.00 | 0.00 | 28 | 977.7 |
| 20260506132330 | 52 | 271 | 5.2 | 7.8 | 0.00 | 0.00 | 0.00 | 28 | 977.9 |
| 20260506131431 | 53 | 295 | 5.2 | 7.0 | 0.00 | 0.00 | 0.00 | 28 | 978.0 |
| 20260506130530 | 54 | 286 | 7.0 | 7.8 | 0.00 | 0.00 | 0.00 | 26 | 978.0 |
| 20260506125630 | 52 | 223 | 8.7 | 12.2 | 0.00 | 0.00 | 0.00 | 26 | 978.0 |
| 20260506124730 | 54 | 192 | 7.8 | 9.6 | 0.00 | 0.00 | 0.00 | 25 | 978.0 |
| 20260506123830 | 54 | 175 | 7.0 | 12.2 | 0.00 | 0.00 | 0.00 | 26 | 977.9 |
| 20260506122030 | 51 | 244 | 6.1 | 7.8 | 0.00 | 0.00 | 0.00 | 29 | 978.4 |
| 20260506121131 | 53 | 188 | 7.0 | 7.8 | 0.00 | 0.00 | 0.00 | 28 | 978.2 |
| 20260506120230 | 53 | 219 | 7.8 | 9.6 | 0.00 | 0.00 | 0.00 | 29 | 978.4 |
| 20260506115330 | 53 | 237 | 7.8 | 13.0 | 0.00 | 0.00 | 0.00 | 27 | 978.4 |
| 20260506114430 | 53 | 231 | 5.2 | 9.6 | 0.00 | 0.00 | 0.00 | 29 | 978.3 |
| 20260506113530 | 51 | 205 | 7.8 | 9.6 | 0.00 | 0.00 | 0.00 | 28 | 978.3 |
| 20260506112630 | 52 | 185 | 6.1 | 10.4 | 0.00 | 0.00 | 0.00 | 30 | 978.5 |
| 20260506111730 | 51 | 209 | 6.1 | 10.4 | 0.00 | 0.00 | 0.00 | 27 | 978.5 |
| 20260506110831 | 51 | 203 | 6.1 | 9.6 | 0.00 | 0.00 | 0.00 | 30 | 978.6 |
| 20260506105930 | 52 | 200 | 7.0 | 13.0 | 0.00 | 0.00 | 0.00 | 29 | 978.6 |
| 20260506104131 | 50 | 297 | 5.2 | 7.0 | 0.00 | 0.00 | 0.00 | 32 | 978.8 |